| time (UTC) | temp C | wind direction | speed KPH | gust KPH | rain 1hr cm | rain 24hr cm | rain mn cm | humidity % | barometer mb |
| 20260510162557 | 12 | 360 | 6.4 | 22.5 | 0.00 | 0.00 | 0.00 | 62 | 1014.7 |
| 20260510162056 | 12 | 43 | 9.7 | 25.7 | 0.00 | 0.00 | 0.00 | 62 | 1014.8 |
| 20260510161555 | 12 | 45 | 11.3 | 25.7 | 0.00 | 0.00 | 0.00 | 63 | 1015.0 |
| 20260510161056 | 12 | 355 | 11.3 | 27.4 | 0.00 | 0.00 | 0.00 | 63 | 1015.0 |
| 20260510160556 | 12 | 82 | 12.9 | 27.4 | 0.00 | 0.00 | 0.00 | 63 | 1014.9 |
| 20260510160117 | 12 | 50 | 12.9 | 27.4 | 0.00 | 0.00 | 0.00 | 64 | 1015.2 |
| 20260510155556 | 12 | 72 | 11.3 | 27.4 | 0.00 | 0.00 | 0.00 | 64 | 1015.1 |
| 20260510155056 | 11 | 42 | 14.5 | 27.4 | 0.00 | 0.00 | 0.00 | 65 | 1015.2 |
| 20260510154606 | 11 | 51 | 12.9 | 24.1 | 0.00 | 0.00 | 0.00 | 66 | 1015.2 |
| 20260510154056 | 11 | 89 | 9.7 | 27.4 | 0.00 | 0.00 | 0.00 | 66 | 1015.3 |
| 20260510153557 | 11 | 30 | 14.5 | 27.4 | 0.00 | 0.00 | 0.00 | 66 | 1015.4 |
| 20260510153057 | 11 | 39 | 11.3 | 24.1 | 0.00 | 0.00 | 0.00 | 65 | 1015.4 |
| 20260510152555 | 11 | 47 | 8.0 | 24.1 | 0.00 | 0.00 | 0.00 | 66 | 1015.4 |
| 20260510152054 | 11 | 355 | 8.0 | 22.5 | 0.00 | 0.00 | 0.00 | 66 | 1015.4 |
| 20260510151601 | 11 | 59 | 8.0 | 24.1 | 0.00 | 0.00 | 0.00 | 66 | 1015.6 |
| 20260510151055 | 11 | 34 | 11.3 | 24.1 | 0.00 | 0.00 | 0.00 | 66 | 1015.5 |
| 20260510150555 | 11 | 91 | 9.7 | 22.5 | 0.00 | 0.00 | 0.00 | 66 | 1015.7 |
| 20260510145554 | 11 | 355 | 8.0 | 24.1 | 0.00 | 0.00 | 0.00 | 66 | 1015.8 |
| 20260510145057 | 11 | 26 | 11.3 | 24.1 | 0.00 | 0.00 | 0.00 | 67 | 1015.7 |
| 20260510144615 | 11 | 38 | 9.7 | 22.5 | 0.00 | 0.00 | 0.00 | 67 | 1015.8 |
| 20260510144055 | 11 | 31 | 9.7 | 25.7 | 0.00 | 0.00 | 0.00 | 68 | 1016.0 |
| 20260510143556 | 11 | 36 | 12.9 | 25.7 | 0.00 | 0.00 | 0.00 | 67 | 1016.0 |
| 20260510143100 | 11 | 30 | 9.7 | 24.1 | 0.00 | 0.00 | 0.00 | 68 | 1016.0 |
| 20260510142558 | 11 | 68 | 6.4 | 24.1 | 0.00 | 0.00 | 0.00 | 68 | 1016.1 |
| 20260510142056 | 11 | 55 | 9.7 | 24.1 | 0.00 | 0.00 | 0.00 | 68 | 1016.3 |
| 20260510141555 | 11 | 71 | 12.9 | 24.1 | 0.00 | 0.00 | 0.00 | 68 | 1016.2 |
| 20260510141056 | 11 | 36 | 9.7 | 25.7 | 0.00 | 0.00 | 0.00 | 68 | 1016.3 |
| 20260510140556 | 12 | 74 | 12.9 | 25.7 | 0.00 | 0.00 | 0.00 | 68 | 1016.3 |
| 20260510140056 | 12 | 34 | 14.5 | 25.7 | 0.00 | 0.00 | 0.00 | 68 | 1016.2 |
| 20260510135556 | 12 | 57 | 11.3 | 22.5 | 0.00 | 0.00 | 0.00 | 68 | 1016.2 |
| 20260510135056 | 12 | 52 | 9.7 | 22.5 | 0.00 | 0.00 | 0.00 | 68 | 1016.3 |
| 20260510134556 | 12 | 33 | 14.5 | 22.5 | 0.00 | 0.00 | 0.00 | 68 | 1016.3 |
| 20260510134056 | 12 | 30 | 8.0 | 25.7 | 0.00 | 0.00 | 0.00 | 68 | 1016.3 |
| 20260510133558 | 12 | 59 | 9.7 | 25.7 | 0.00 | 0.00 | 0.00 | 67 | 1016.3 |
| 20260510133055 | 12 | 90 | 14.5 | 25.7 | 0.00 | 0.00 | 0.00 | 67 | 1016.3 |
| 20260510132556 | 12 | 70 | 6.4 | 20.9 | 0.00 | 0.00 | 0.00 | 68 | 1016.3 |
| 20260510132057 | 12 | 51 | 6.4 | 27.4 | 0.00 | 0.00 | 0.00 | 69 | 1016.3 |
| 20260510131554 | 12 | 36 | 12.9 | 27.4 | 0.00 | 0.00 | 0.00 | 69 | 1016.3 |
| 20260510131056 | 12 | 42 | 6.4 | 22.5 | 0.00 | 0.00 | 0.00 | 69 | 1016.3 |
| 20260510130557 | 12 | 49 | 8.0 | 30.6 | 0.00 | 0.00 | 0.00 | 69 | 1016.3 |
| 20260510130056 | 12 | 36 | 14.5 | 30.6 | 0.00 | 0.00 | 0.00 | 69 | 1016.4 |
| 20260510125556 | 12 | 34 | 8.0 | 29.0 | 0.00 | 0.00 | 0.00 | 70 | 1016.4 |
| 20260510125057 | 12 | 47 | 12.9 | 30.6 | 0.00 | 0.00 | 0.00 | 69 | 1016.6 |
| 20260510124609 | 12 | 18 | 11.3 | 30.6 | 0.00 | 0.00 | 0.00 | 69 | 1016.5 |
| 20260510124056 | 12 | 51 | 11.3 | 24.1 | 0.00 | 0.00 | 0.00 | 68 | 1016.7 |
| 20260510123557 | 12 | 78 | 11.3 | 24.1 | 0.00 | 0.00 | 0.00 | 68 | 1016.6 |
| 20260510123058 | 12 | 37 | 11.3 | 25.7 | 0.00 | 0.00 | 0.00 | 68 | 1016.7 |
| 20260510122559 | 12 | 28 | 8.0 | 30.6 | 0.00 | 0.00 | 0.00 | 69 | 1016.8 |
| 20260510122056 | 12 | 18 | 12.9 | 30.6 | 0.00 | 0.00 | 0.00 | 68 | 1016.9 |
| 20260510121557 | 12 | 91 | 14.5 | 30.6 | 0.00 | 0.00 | 0.00 | 66 | 1016.7 |
| 20260510121059 | 13 | 66 | 16.1 | 29.0 | 0.00 | 0.00 | 0.00 | 65 | 1016.7 |
| 20260510120559 | 13 | 44 | 12.9 | 27.4 | 0.00 | 0.00 | 0.00 | 64 | 1016.6 |
| 20260510120057 | 13 | 52 | 12.9 | 27.4 | 0.00 | 0.00 | 0.00 | 64 | 1016.6 |
| 20260510115558 | 13 | 2 | 12.9 | 27.4 | 0.00 | 0.00 | 0.00 | 63 | 1016.6 |
| 20260510115058 | 14 | 52 | 9.7 | 32.2 | 0.00 | 0.00 | 0.00 | 64 | 1016.5 |
| 20260510114558 | 13 | 19 | 14.5 | 32.2 | 0.00 | 0.00 | 0.00 | 63 | 1016.6 |
| 20260510114059 | 13 | 66 | 14.5 | 29.0 | 0.00 | 0.00 | 0.00 | 64 | 1016.6 |
| 20260510113559 | 13 | 88 | 9.7 | 25.7 | 0.00 | 0.00 | 0.00 | 64 | 1016.8 |
| 20260510113104 | 13 | 43 | 11.3 | 27.4 | 0.00 | 0.00 | 0.00 | 64 | 1016.9 |
| 20260510112558 | 13 | 54 | 14.5 | 27.4 | 0.00 | 0.00 | 0.00 | 63 | 1016.9 |
| 20260510112058 | 13 | 21 | 11.3 | 25.7 | 0.00 | 0.00 | 0.00 | 63 | 1017.0 |
| 20260510111557 | 13 | 71 | 9.7 | 22.5 | 0.00 | 0.00 | 0.00 | 63 | 1017.0 |
| 20260510111059 | 13 | 55 | 11.3 | 24.1 | 0.00 | 0.00 | 0.00 | 63 | 1017.0 |
| 20260510110602 | 13 | 34 | 12.9 | 25.7 | 0.00 | 0.00 | 0.00 | 63 | 1017.0 |
| 20260510110058 | 13 | 57 | 11.3 | 25.7 | 0.00 | 0.00 | 0.00 | 62 | 1017.2 |
| 20260510105558 | 14 | 5 | 9.7 | 24.1 | 0.00 | 0.00 | 0.00 | 63 | 1017.2 |
| 20260510105059 | 14 | 57 | 6.4 | 24.1 | 0.00 | 0.00 | 0.00 | 64 | 1017.3 |
| 20260510104604 | 14 | 55 | 8.0 | 25.7 | 0.00 | 0.00 | 0.00 | 64 | 1017.2 |
| 20260510104100 | 14 | 24 | 11.3 | 25.7 | 0.00 | 0.00 | 0.00 | 63 | 1017.2 |
| 20260510103558 | 13 | 35 | 8.0 | 25.7 | 0.00 | 0.00 | 0.00 | 63 | 1017.3 |
| 20260510103056 | 13 | 64 | 11.3 | 25.7 | 0.00 | 0.00 | 0.00 | 64 | 1017.2 |
| 20260510102559 | 13 | 78 | 11.3 | 27.4 | 0.00 | 0.00 | 0.00 | 64 | 1017.2 |
| 20260510102059 | 13 | 87 | 11.3 | 27.4 | 0.00 | 0.00 | 0.00 | 63 | 1017.3 |
| 20260510101601 | 13 | 21 | 11.3 | 29.0 | 0.00 | 0.00 | 0.00 | 64 | 1017.4 |
| 20260510101058 | 13 | 36 | 12.9 | 29.0 | 0.00 | 0.00 | 0.00 | 63 | 1017.3 |
| 20260510100601 | 13 | 85 | 16.1 | 29.0 | 0.00 | 0.00 | 0.00 | 62 | 1017.4 |
| 20260510100057 | 13 | 67 | 16.1 | 27.4 | 0.00 | 0.00 | 0.00 | 64 | 1017.3 |
| 20260510095558 | 13 | 108 | 12.9 | 27.4 | 0.00 | 0.00 | 0.00 | 65 | 1017.4 |
| 20260510095058 | 12 | 49 | 12.9 | 27.4 | 0.00 | 0.00 | 0.00 | 66 | 1017.4 |
| 20260510094611 | 12 | 78 | 9.7 | 24.1 | 0.00 | 0.00 | 0.00 | 67 | 1017.4 |
| 20260510094058 | 12 | 99 | 12.9 | 25.7 | 0.00 | 0.00 | 0.00 | 67 | 1017.4 |
| 20260510093558 | 12 | 70 | 9.7 | 25.7 | 0.00 | 0.00 | 0.00 | 67 | 1017.5 |
| 20260510093119 | 12 | 45 | 14.5 | 24.1 | 0.00 | 0.00 | 0.00 | 67 | 1017.6 |
| 20260510092558 | 12 | 78 | 9.7 | 22.5 | 0.00 | 0.00 | 0.00 | 67 | 1017.6 |
| 20260510092100 | 12 | 82 | 11.3 | 27.4 | 0.00 | 0.00 | 0.00 | 68 | 1017.6 |
| 20260510091600 | 12 | 39 | 11.3 | 27.4 | 0.00 | 0.00 | 0.00 | 68 | 1017.5 |
| 20260510091058 | 12 | 43 | 14.5 | 30.6 | 0.00 | 0.00 | 0.00 | 69 | 1017.6 |
| 20260510090601 | 12 | 64 | 14.5 | 30.6 | 0.00 | 0.00 | 0.00 | 70 | 1017.6 |
| 20260510090110 | 12 | 22 | 9.7 | 30.6 | 0.00 | 0.00 | 0.00 | 72 | 1017.7 |
| 20260510085600 | 11 | 78 | 14.5 | 30.6 | 0.00 | 0.00 | 0.00 | 72 | 1017.7 |
| 20260510085058 | 11 | 54 | 6.4 | 27.4 | 0.00 | 0.00 | 0.00 | 74 | 1017.8 |
| 20260510084601 | 11 | 26 | 12.9 | 27.4 | 0.00 | 0.00 | 0.00 | 74 | 1017.8 |
| 20260510084058 | 11 | 47 | 12.9 | 25.7 | 0.00 | 0.00 | 0.00 | 75 | 1017.8 |
| 20260510083558 | 11 | 30 | 11.3 | 22.5 | 0.00 | 0.00 | 0.00 | 76 | 1017.9 |
| 20260510083058 | 10 | 68 | 11.3 | 32.2 | 0.00 | 0.00 | 0.00 | 76 | 1017.9 |
| 20260510082604 | 10 | 30 | 12.9 | 32.2 | 0.00 | 0.00 | 0.00 | 76 | 1017.9 |
| 20260510082058 | 10 | 32 | 11.3 | 24.1 | 0.00 | 0.00 | 0.00 | 77 | 1017.8 |
| 20260510081557 | 10 | 64 | 8.0 | 27.4 | 0.00 | 0.00 | 0.00 | 77 | 1017.9 |
| 20260510081101 | 10 | 26 | 11.3 | 27.4 | 0.00 | 0.00 | 0.00 | 78 | 1017.9 |
| 20260510080558 | 10 | 37 | 11.3 | 25.7 | 0.00 | 0.00 | 0.00 | 77 | 1017.9 |
| 20260510080056 | 10 | 88 | 12.9 | 24.1 | 0.00 | 0.00 | 0.00 | 78 | 1017.9 |
| 20260510075557 | 10 | 61 | 9.7 | 25.7 | 0.00 | 0.00 | 0.00 | 78 | 1017.9 |
| 20260510075057 | 10 | 45 | 9.7 | 30.6 | 0.00 | 0.00 | 0.00 | 79 | 1017.9 |
| 20260510074558 | 10 | 30 | 8.0 | 30.6 | 0.00 | 0.00 | 0.00 | 79 | 1018.0 |
| 20260510074059 | 10 | 68 | 9.7 | 24.1 | 0.00 | 0.00 | 0.00 | 80 | 1018.0 |
| 20260510073558 | 10 | 41 | 9.7 | 24.1 | 0.00 | 0.00 | 0.00 | 80 | 1018.1 |
| 20260510073058 | 10 | 109 | 12.9 | 24.1 | 0.00 | 0.00 | 0.00 | 80 | 1018.0 |
| 20260510072558 | 10 | 32 | 11.3 | 24.1 | 0.00 | 0.00 | 0.00 | 81 | 1018.0 |
| 20260510072058 | 10 | 33 | 8.0 | 20.9 | 0.00 | 0.00 | 0.00 | 82 | 1017.9 |
| 20260510071557 | 9 | 52 | 9.7 | 22.5 | 0.00 | 0.00 | 0.00 | 82 | 1017.8 |
| 20260510071058 | 9 | 73 | 9.7 | 22.5 | 0.00 | 0.00 | 0.00 | 82 | 1017.9 |
| 20260510070558 | 9 | 26 | 6.4 | 27.4 | 0.00 | 0.00 | 0.00 | 82 | 1017.9 |
| 20260510070058 | 9 | 66 | 11.3 | 27.4 | 0.00 | 0.00 | 0.00 | 83 | 1017.9 |
| 20260510065601 | 9 | 37 | 9.7 | 22.5 | 0.00 | 0.00 | 0.00 | 83 | 1017.9 |
| 20260510065101 | 9 | 53 | 6.4 | 17.7 | 0.00 | 0.00 | 0.00 | 84 | 1017.8 |
| 20260510064557 | 9 | 38 | 1.6 | 24.1 | 0.00 | 0.00 | 0.00 | 84 | 1017.9 |
| 20260510064057 | 9 | 27 | 9.7 | 24.1 | 0.00 | 0.00 | 0.00 | 84 | 1017.9 |
| 20260510063602 | 8 | 47 | 9.7 | 24.1 | 0.00 | 0.00 | 0.00 | 84 | 1017.9 |
| 20260510063057 | 8 | 95 | 9.7 | 20.9 | 0.00 | 0.00 | 0.00 | 84 | 1017.9 |
| 20260510062601 | 8 | 51 | 8.0 | 22.5 | 0.00 | 0.00 | 0.00 | 84 | 1017.8 |
| 20260510062058 | 8 | 33 | 11.3 | 22.5 | 0.00 | 0.00 | 0.00 | 85 | 1017.8 |
| 20260510061557 | 8 | 46 | 6.4 | 17.7 | 0.00 | 0.00 | 0.00 | 85 | 1017.7 |
| 20260510061058 | 8 | 60 | 6.4 | 17.7 | 0.00 | 0.00 | 0.00 | 85 | 1017.7 |
| 20260510060558 | 8 | 122 | 4.8 | 16.1 | 0.00 | 0.00 | 0.00 | 85 | 1017.7 |
| 20260510060058 | 8 | 32 | 4.8 | 16.1 | 0.00 | 0.00 | 0.00 | 86 | 1017.6 |
| 20260510055556 | 8 | 28 | 6.4 | 16.1 | 0.00 | 0.00 | 0.00 | 86 | 1017.6 |
| 20260510055055 | 8 | 62 | 6.4 | 14.5 | 0.00 | 0.00 | 0.00 | 86 | 1017.6 |
| 20260510054556 | 8 | 39 | 3.2 | 16.1 | 0.00 | 0.00 | 0.00 | 86 | 1017.6 |
| 20260510054054 | 8 | 0 | 3.2 | 19.3 | 0.00 | 0.00 | 0.00 | 86 | 1017.6 |
| 20260510053555 | 8 | 39 | 4.8 | 19.3 | 0.00 | 0.00 | 0.00 | 86 | 1017.6 |
| 20260510053104 | 8 | 49 | 4.8 | 22.5 | 0.00 | 0.00 | 0.00 | 86 | 1017.6 |
| 20260510052555 | 8 | 53 | 8.0 | 22.5 | 0.00 | 0.00 | 0.00 | 86 | 1017.7 |
| 20260510052055 | 8 | 30 | 8.0 | 19.3 | 0.00 | 0.00 | 0.00 | 86 | 1017.7 |
| 20260510051558 | 8 | 0 | 4.8 | 16.1 | 0.00 | 0.00 | 0.00 | 86 | 1017.7 |
| 20260510051055 | 8 | 61 | 4.8 | 16.1 | 0.00 | 0.00 | 0.00 | 86 | 1017.6 |
| 20260510050600 | 8 | 55 | 9.7 | 16.1 | 0.00 | 0.00 | 0.00 | 86 | 1017.6 |
| 20260510050056 | 8 | 83 | 4.8 | 27.4 | 0.00 | 0.00 | 0.00 | 86 | 1017.7 |
| 20260510045557 | 8 | 27 | 4.8 | 27.4 | 0.00 | 0.00 | 0.00 | 86 | 1017.6 |
| 20260510045056 | 8 | 17 | 9.7 | 27.4 | 0.00 | 0.00 | 0.00 | 86 | 1017.6 |
| 20260510044557 | 8 | 27 | 4.8 | 16.1 | 0.00 | 0.00 | 0.00 | 86 | 1017.6 |
| 20260510044055 | 8 | 19 | 4.8 | 16.1 | 0.00 | 0.00 | 0.00 | 86 | 1017.6 |
| 20260510043554 | 8 | 28 | 6.4 | 16.1 | 0.00 | 0.00 | 0.00 | 86 | 1017.6 |
| 20260510043103 | 8 | 50 | 4.8 | 14.5 | 0.00 | 0.00 | 0.00 | 86 | 1017.6 |
| 20260510042556 | 8 | 57 | 4.8 | 14.5 | 0.00 | 0.00 | 0.00 | 86 | 1017.6 |
| 20260510042059 | 8 | 43 | 6.4 | 14.5 | 0.00 | 0.00 | 0.00 | 86 | 1017.7 |
| 20260510041555 | 8 | 44 | 3.2 | 14.5 | 0.00 | 0.00 | 0.00 | 86 | 1017.6 |
| 20260510041055 | 8 | 61 | 1.6 | 14.5 | 0.00 | 0.00 | 0.00 | 86 | 1017.7 |
| 20260510040557 | 8 | 72 | 3.2 | 14.5 | 0.00 | 0.00 | 0.00 | 85 | 1017.7 |
| 20260510040058 | 8 | 27 | 1.6 | 12.9 | 0.00 | 0.00 | 0.00 | 85 | 1017.8 |
| 20260510035555 | 8 | 0 | 4.8 | 12.9 | 0.00 | 0.00 | 0.00 | 85 | 1018.0 |
| 20260510035057 | 8 | 51 | 6.4 | 17.7 | 0.00 | 0.00 | 0.00 | 85 | 1017.9 |
| 20260510034556 | 8 | 41 | 8.0 | 19.3 | 0.00 | 0.00 | 0.00 | 85 | 1017.8 |
| 20260510034055 | 8 | 55 | 8.0 | 19.3 | 0.00 | 0.00 | 0.00 | 85 | 1017.9 |
| 20260510033554 | 8 | 16 | 4.8 | 19.3 | 0.00 | 0.00 | 0.00 | 85 | 1017.9 |
| 20260510033107 | 8 | 41 | 8.0 | 19.3 | 0.00 | 0.00 | 0.00 | 85 | 1018.0 |
| 20260510032555 | 8 | 40 | 6.4 | 17.7 | 0.00 | 0.00 | 0.00 | 85 | 1018.0 |
| 20260510032055 | 8 | 58 | 6.4 | 16.1 | 0.00 | 0.00 | 0.00 | 85 | 1018.1 |
| 20260510031556 | 8 | 59 | 3.2 | 16.1 | 0.00 | 0.00 | 0.00 | 85 | 1018.0 |
| 20260510031054 | 8 | 36 | 6.4 | 16.1 | 0.00 | 0.00 | 0.00 | 84 | 1018.2 |
| 20260510030554 | 8 | 59 | 1.6 | 9.7 | 0.00 | 0.00 | 0.00 | 84 | 1018.1 |
| 20260510025556 | 8 | 70 | 1.6 | 17.7 | 0.00 | 0.00 | 0.00 | 84 | 1018.1 |
| 20260510025057 | 8 | 32 | 6.4 | 17.7 | 0.00 | 0.00 | 0.00 | 84 | 1018.0 |
| 20260510024658 | 8 | 53 | 4.8 | 19.3 | 0.00 | 0.00 | 0.00 | 84 | 1018.0 |
| 20260510024057 | 8 | 17 | 4.8 | 19.3 | 0.00 | 0.00 | 0.00 | 84 | 1018.0 |
| 20260510023557 | 9 | 43 | 4.8 | 17.7 | 0.00 | 0.00 | 0.00 | 83 | 1018.0 |
| 20260510023057 | 9 | 68 | 4.8 | 14.5 | 0.00 | 0.00 | 0.00 | 83 | 1018.0 |
| 20260510022600 | 9 | 35 | 4.8 | 16.1 | 0.00 | 0.00 | 0.00 | 83 | 1018.1 |
| 20260510022057 | 9 | 38 | 6.4 | 16.1 | 0.00 | 0.00 | 0.00 | 83 | 1018.0 |
| 20260510021558 | 9 | 53 | 6.4 | 19.3 | 0.00 | 0.00 | 0.00 | 82 | 1018.0 |
| 20260510021056 | 9 | 0 | 4.8 | 19.3 | 0.00 | 0.00 | 0.00 | 82 | 1018.1 |
| 20260510020556 | 9 | 43 | 8.0 | 19.3 | 0.00 | 0.00 | 0.00 | 82 | 1018.0 |
| 20260510020058 | 9 | 54 | 6.4 | 19.3 | 0.00 | 0.00 | 0.00 | 81 | 1017.9 |
| 20260510015557 | 9 | 24 | 4.8 | 19.3 | 0.00 | 0.00 | 0.00 | 80 | 1018.0 |
| 20260510015056 | 9 | 38 | 4.8 | 19.3 | 0.00 | 0.00 | 0.00 | 80 | 1018.0 |
| 20260510014556 | 9 | 36 | 6.4 | 19.3 | 0.00 | 0.00 | 0.00 | 79 | 1017.9 |
| 20260510014056 | 10 | 44 | 4.8 | 16.1 | 0.00 | 0.00 | 0.00 | 77 | 1018.0 |
| 20260510013556 | 10 | 32 | 3.2 | 17.7 | 0.00 | 0.00 | 0.00 | 76 | 1017.9 |
| 20260510013057 | 10 | 37 | 4.8 | 17.7 | 0.00 | 0.00 | 0.00 | 74 | 1017.9 |
| 20260510012556 | 10 | 34 | 4.8 | 17.7 | 0.00 | 0.00 | 0.00 | 72 | 1018.0 |
| 20260510012056 | 10 | 50 | 6.4 | 17.7 | 0.00 | 0.00 | 0.00 | 70 | 1018.0 |
| 20260510011557 | 10 | 45 | 1.6 | 11.3 | 0.00 | 0.00 | 0.00 | 69 | 1018.0 |
| 20260510011055 | 10 | 16 | 6.4 | 11.3 | 0.00 | 0.00 | 0.00 | 68 | 1018.0 |
| 20260510010555 | 10 | 42 | 4.8 | 11.3 | 0.00 | 0.00 | 0.00 | 67 | 1018.0 |
| 20260510010059 | 10 | 33 | 4.8 | 14.5 | 0.00 | 0.00 | 0.00 | 66 | 1018.0 |
| 20260510005558 | 10 | 36 | 6.4 | 14.5 | 0.00 | 0.00 | 0.00 | 66 | 1017.9 |
| 20260510005057 | 10 | 26 | 8.0 | 17.7 | 0.00 | 0.00 | 0.00 | 65 | 1017.9 |
| 20260510004602 | 10 | 39 | 8.0 | 20.9 | 0.00 | 0.00 | 0.00 | 65 | 1017.9 |
| 20260510004056 | 11 | 37 | 8.0 | 20.9 | 0.00 | 0.00 | 0.00 | 65 | 1018.0 |
| 20260510003556 | 11 | 32 | 4.8 | 17.7 | 0.00 | 0.00 | 0.00 | 65 | 1018.0 |
| 20260510003058 | 11 | 0 | 8.0 | 17.7 | 0.00 | 0.00 | 0.00 | 65 | 1018.0 |
| 20260510002556 | 11 | 34 | 6.4 | 24.1 | 0.00 | 0.00 | 0.00 | 65 | 1018.0 |
| 20260510002057 | 11 | 32 | 6.4 | 24.1 | 0.00 | 0.00 | 0.00 | 65 | 1017.9 |
| 20260510001557 | 11 | 24 | 6.4 | 24.1 | 0.00 | 0.00 | 0.00 | 65 | 1018.0 |
| 20260510001056 | 11 | 44 | 6.4 | 14.5 | 0.00 | 0.00 | 0.00 | 64 | 1018.0 |
| 20260510000556 | 11 | 43 | 4.8 | 16.1 | 0.00 | 0.00 | 0.00 | 64 | 1017.9 |
| 20260509235604 | 11 | 44 | 3.2 | 16.1 | 0.00 | 0.00 | 0.00 | 63 | 1018.0 |
| 20260509235059 | 11 | 52 | 4.8 | 16.1 | 0.00 | 0.00 | 0.00 | 62 | 1017.9 |
| 20260509234558 | 11 | 61 | 4.8 | 14.5 | 0.00 | 0.00 | 0.00 | 62 | 1018.0 |
| 20260509234059 | 11 | 51 | 3.2 | 8.0 | 0.00 | 0.00 | 0.00 | 61 | 1017.8 |
| 20260509233601 | 11 | 51 | 1.6 | 8.0 | 0.00 | 0.00 | 0.00 | 61 | 1017.8 |
| 20260509233058 | 11 | 58 | 1.6 | 8.0 | 0.00 | 0.00 | 0.00 | 61 | 1017.7 |
| 20260509232559 | 11 | 57 | 0.0 | 8.0 | 0.00 | 0.00 | 0.00 | 60 | 1017.8 |
| 20260509232059 | 11 | 57 | 1.6 | 8.0 | 0.00 | 0.00 | 0.00 | 60 | 1017.8 |
| 20260509231556 | 11 | 57 | 0.0 | 12.9 | 0.00 | 0.00 | 0.00 | 59 | 1017.9 |
| 20260509231058 | 11 | 57 | 3.2 | 12.9 | 0.00 | 0.00 | 0.00 | 59 | 1017.9 |
| 20260509230601 | 11 | 0 | 4.8 | 12.9 | 0.00 | 0.00 | 0.00 | 58 | 1017.8 |
| 20260509230058 | 11 | 62 | 1.6 | 9.7 | 0.00 | 0.00 | 0.00 | 57 | 1017.7 |
| 20260509225558 | 11 | 66 | 0.0 | 6.4 | 0.00 | 0.00 | 0.00 | 57 | 1017.8 |
| 20260509225058 | 12 | 66 | 0.0 | 6.4 | 0.00 | 0.00 | 0.00 | 56 | 1017.7 |
| 20260509224557 | 12 | 66 | 1.6 | 8.0 | 0.00 | 0.00 | 0.00 | 56 | 1017.7 |
| 20260509224058 | 12 | 0 | 3.2 | 8.0 | 0.00 | 0.00 | 0.00 | 55 | 1017.8 |
| 20260509223600 | 12 | 69 | 3.2 | 8.0 | 0.00 | 0.00 | 0.00 | 55 | 1017.7 |
| 20260509223101 | 12 | 0 | 3.2 | 11.3 | 0.00 | 0.00 | 0.00 | 54 | 1017.6 |
| 20260509222602 | 12 | 69 | 1.6 | 11.3 | 0.00 | 0.00 | 0.00 | 54 | 1017.7 |
| 20260509222058 | 12 | 78 | 1.6 | 9.7 | 0.00 | 0.00 | 0.00 | 54 | 1017.7 |
| 20260509221559 | 12 | 82 | 3.2 | 12.9 | 0.00 | 0.00 | 0.00 | 53 | 1017.7 |
| 20260509221058 | 12 | 82 | 1.6 | 12.9 | 0.00 | 0.00 | 0.00 | 53 | 1017.6 |
| 20260509220557 | 12 | 82 | 3.2 | 11.3 | 0.00 | 0.00 | 0.00 | 53 | 1017.6 |
| 20260509220103 | 12 | 67 | 1.6 | 11.3 | 0.00 | 0.00 | 0.00 | 53 | 1017.6 |
| 20260509215558 | 12 | 66 | 4.8 | 11.3 | 0.00 | 0.00 | 0.00 | 53 | 1017.6 |
| 20260509215058 | 12 | 73 | 3.2 | 11.3 | 0.00 | 0.00 | 0.00 | 52 | 1017.5 |
| 20260509214628 | 12 | 71 | 3.2 | 12.9 | 0.00 | 0.00 | 0.00 | 52 | 1017.6 |
| 20260509214058 | 13 | 72 | 3.2 | 12.9 | 0.00 | 0.00 | 0.00 | 51 | 1017.7 |
| 20260509213558 | 13 | 72 | 3.2 | 14.5 | 0.00 | 0.00 | 0.00 | 51 | 1017.8 |
| 20260509213057 | 13 | 0 | 3.2 | 14.5 | 0.00 | 0.00 | 0.00 | 50 | 1017.7 |
| 20260509212558 | 13 | 77 | 4.8 | 17.7 | 0.00 | 0.00 | 0.00 | 50 | 1017.7 |
| 20260509212059 | 13 | 55 | 8.0 | 17.7 | 0.00 | 0.00 | 0.00 | 50 | 1017.7 |
| 20260509211556 | 13 | 0 | 4.8 | 16.1 | 0.00 | 0.00 | 0.00 | 50 | 1017.6 |
| 20260509211058 | 13 | 89 | 6.4 | 16.1 | 0.00 | 0.00 | 0.00 | 49 | 1017.5 |
| 20260509210559 | 13 | 67 | 6.4 | 16.1 | 0.00 | 0.00 | 0.00 | 49 | 1017.4 |
| 20260509210106 | 13 | 86 | 8.0 | 16.1 | 0.00 | 0.00 | 0.00 | 49 | 1017.4 |
| 20260509205557 | 13 | 68 | 3.2 | 14.5 | 0.00 | 0.00 | 0.00 | 49 | 1017.3 |
| 20260509205057 | 13 | 64 | 3.2 | 14.5 | 0.00 | 0.00 | 0.00 | 49 | 1017.3 |
| 20260509204557 | 14 | 80 | 4.8 | 14.5 | 0.00 | 0.00 | 0.00 | 48 | 1017.3 |
| 20260509204057 | 14 | 82 | 6.4 | 14.5 | 0.00 | 0.00 | 0.00 | 48 | 1017.3 |
| 20260509203558 | 14 | 73 | 4.8 | 17.7 | 0.00 | 0.00 | 0.00 | 47 | 1017.2 |
| 20260509203115 | 14 | 86 | 3.2 | 17.7 | 0.00 | 0.00 | 0.00 | 47 | 1017.3 |
| 20260509202556 | 14 | 91 | 6.4 | 19.3 | 0.00 | 0.00 | 0.00 | 47 | 1017.1 |
| 20260509202056 | 15 | 61 | 8.0 | 19.3 | 0.00 | 0.00 | 0.00 | 47 | 1017.2 |
| 20260509201559 | 15 | 59 | 8.0 | 17.7 | 0.00 | 0.00 | 0.00 | 47 | 1017.2 |
| 20260509201055 | 15 | 81 | 6.4 | 17.7 | 0.00 | 0.00 | 0.00 | 47 | 1017.1 |
| 20260509200558 | 15 | 90 | 6.4 | 17.7 | 0.00 | 0.00 | 0.00 | 47 | 1017.1 |
| 20260509200057 | 15 | 76 | 4.8 | 16.1 | 0.00 | 0.00 | 0.00 | 47 | 1017.1 |
| 20260509195557 | 15 | 83 | 3.2 | 14.5 | 0.00 | 0.00 | 0.00 | 46 | 1016.9 |
| 20260509195057 | 15 | 90 | 8.0 | 14.5 | 0.00 | 0.00 | 0.00 | 46 | 1016.9 |
| 20260509194555 | 15 | 89 | 4.8 | 12.9 | 0.00 | 0.00 | 0.00 | 46 | 1016.9 |
| 20260509194056 | 15 | 86 | 4.8 | 12.9 | 0.00 | 0.00 | 0.00 | 45 | 1016.9 |
| 20260509193557 | 16 | 0 | 4.8 | 14.5 | 0.00 | 0.00 | 0.00 | 45 | 1016.8 |
| 20260509193102 | 16 | 72 | 4.8 | 14.5 | 0.00 | 0.00 | 0.00 | 45 | 1016.7 |
| 20260509192601 | 16 | 66 | 6.4 | 14.5 | 0.00 | 0.00 | 0.00 | 44 | 1016.7 |
| 20260509192056 | 16 | 93 | 6.4 | 16.1 | 0.00 | 0.00 | 0.00 | 44 | 1016.7 |
| 20260509191606 | 16 | 91 | 8.0 | 16.1 | 0.00 | 0.00 | 0.00 | 44 | 1016.7 |
| 20260509191057 | 16 | 81 | 8.0 | 19.3 | 0.00 | 0.00 | 0.00 | 44 | 1016.7 |
| 20260509190558 | 16 | 80 | 8.0 | 19.3 | 0.00 | 0.00 | 0.00 | 44 | 1016.6 |
| 20260509190057 | 17 | 73 | 9.7 | 19.3 | 0.00 | 0.00 | 0.00 | 44 | 1016.5 |
| 20260509185556 | 17 | 66 | 8.0 | 19.3 | 0.00 | 0.00 | 0.00 | 43 | 1016.4 |
| 20260509185056 | 17 | 68 | 4.8 | 16.1 | 0.00 | 0.00 | 0.00 | 43 | 1016.5 |
| 20260509184602 | 17 | 114 | 6.4 | 17.7 | 0.00 | 0.00 | 0.00 | 42 | 1016.6 |
| 20260509184057 | 17 | 95 | 3.2 | 22.5 | 0.00 | 0.00 | 0.00 | 42 | 1016.5 |
| 20260509183556 | 17 | 134 | 4.8 | 22.5 | 0.00 | 0.00 | 0.00 | 42 | 1016.4 |
| 20260509183100 | 17 | 125 | 3.2 | 14.5 | 0.00 | 0.00 | 0.00 | 42 | 1016.4 |
| 20260509182600 | 18 | 85 | 4.8 | 17.7 | 0.00 | 0.00 | 0.00 | 41 | 1016.2 |
| 20260509182056 | 18 | 118 | 6.4 | 17.7 | 0.00 | 0.00 | 0.00 | 41 | 1016.1 |
| 20260509181558 | 18 | 122 | 3.2 | 16.1 | 0.00 | 0.00 | 0.00 | 42 | 1016.0 |
| 20260509181057 | 18 | 98 | 3.2 | 17.7 | 0.00 | 0.00 | 0.00 | 42 | 1016.0 |
| 20260509180557 | 18 | 101 | 6.4 | 19.3 | 0.00 | 0.00 | 0.00 | 41 | 1016.1 |
| 20260509180109 | 18 | 94 | 4.8 | 19.3 | 0.00 | 0.00 | 0.00 | 41 | 1016.0 |
| 20260509175557 | 18 | 80 | 6.4 | 20.9 | 0.00 | 0.00 | 0.00 | 41 | 1015.9 |
| 20260509175057 | 18 | 71 | 4.8 | 20.9 | 0.00 | 0.00 | 0.00 | 41 | 1015.9 |
| 20260509174620 | 18 | 101 | 11.3 | 20.9 | 0.00 | 0.00 | 0.00 | 40 | 1015.7 |
| 20260509174056 | 19 | 103 | 6.4 | 17.7 | 0.00 | 0.00 | 0.00 | 40 | 1015.7 |
| 20260509173555 | 19 | 85 | 8.0 | 17.7 | 0.00 | 0.00 | 0.00 | 39 | 1015.7 |
| 20260509173100 | 19 | 108 | 4.8 | 17.7 | 0.00 | 0.00 | 0.00 | 39 | 1015.6 |
| 20260509172557 | 19 | 56 | 9.7 | 17.7 | 0.00 | 0.00 | 0.00 | 38 | 1015.6 |
| 20260509172055 | 19 | 85 | 6.4 | 17.7 | 0.00 | 0.00 | 0.00 | 38 | 1015.6 |
| 20260509171557 | 20 | 80 | 8.0 | 17.7 | 0.00 | 0.00 | 0.00 | 38 | 1015.7 |
| 20260509171057 | 20 | 76 | 8.0 | 17.7 | 0.00 | 0.00 | 0.00 | 37 | 1015.8 |
| 20260509170554 | 20 | 82 | 8.0 | 17.7 | 0.00 | 0.00 | 0.00 | 37 | 1015.9 |
| 20260509165557 | 20 | 58 | 9.7 | 17.7 | 0.00 | 0.00 | 0.00 | 38 | 1015.8 |
| 20260509165058 | 20 | 79 | 8.0 | 17.7 | 0.00 | 0.00 | 0.00 | 38 | 1015.8 |
| 20260509164556 | 20 | 81 | 6.4 | 19.3 | 0.00 | 0.00 | 0.00 | 38 | 1015.8 |
| 20260509164053 | 20 | 41 | 8.0 | 19.3 | 0.00 | 0.00 | 0.00 | 37 | 1015.7 |
| 20260509163553 | 20 | 81 | 4.8 | 17.7 | 0.00 | 0.00 | 0.00 | 37 | 1015.7 |
| 20260509163100 | 20 | 99 | 6.4 | 17.7 | 0.00 | 0.00 | 0.00 | 37 | 1015.7 |